Regional Weather Roundup
Issued by NWS

Home | Current Version | Previous Version | Text Only | Print | Product List | Glossary Off
Versions: 1 2 3 4 5 6 7 8 9 10 11 12 13 14 15 16 17 18 19 20 21 22 23 24 25 26 27 28 29 30 31 32 33 34 35 36 37 38 39 40 41 42 43 44 45 46 47 48 49 50

000
ASUS43 KLMK 181002
RWRKY
KENTUCKY REGIONAL WEATHER ROUNDUP
NATIONAL WEATHER SERVICE LOUISVILLE KY
500 AM EST SUN FEB 18 2018

NOTE "FAIR" INDICATES FEW OR NO CLOUDS BELOW 12,000 FEET
WITH NO SIGNIFICANT WEATHER AND/OR OBSTRUCTIONS TO VISIBILITY.

KYZ001>023-026-027-061>063-070>075-181100-
WESTERN AND SOUTH CENTRAL KENTUCKY

CITY           SKY/WX    TMP DP  RH WIND       PRES   REMARKS
PADUCAH        FOG       31  28  89 CALM      30.31R VSB 1/4
HENDERSON      FAIR      28  28 100 CALM      30.33R FOG
OWENSBORO      FAIR      30  29  96 CALM      30.32R FOG
HOPKINSVILLE   FOG       30  28  93 NE3       30.30R VSB 5/8
BOWLING GREEN  FAIR      35  33  92 N3        30.32R
GLASGOW        NOT AVBL
$$

KYZ024-025-028>034-038-045-046-053-181100-
NORTH CENTRAL KENTUCKY

CITY           SKY/WX    TMP DP  RH WIND       PRES   REMARKS
LOUISVILLE/SDF FAIR      33  30  88 CALM      30.31R
LOUISVILLE/LOU FAIR      31  30  96 CALM      30.32R
FORT KNOX      FAIR      30  29  97 CALM      30.31R
$$

KYZ035>037-039>044-047>052-055>060-089>105-181100-
NORTHEAST KENTUCKY

CITY           SKY/WX    TMP DP  RH WIND       PRES   REMARKS
LEXINGTON      FAIR      33  28  81 W3        30.30R
COVINGTON      CLOUDY    33  30  88 NW3       30.28R
FRANKFORT      FAIR      31  26  82 W3        30.29R
$$

KYZ054-064>069-076>088-106>120-181100-
SOUTHEAST KENTUCKY

CITY           SKY/WX    TMP DP  RH WIND       PRES   REMARKS
JACKSON        MOCLDY    36  30  79 NW6       30.28R WCI  31
LONDON         MOCLDY    36  32  85 NW5       30.29R WCI  32
SOMERSET       NOT AVBL
MIDDLESBORO    CLOUDY    39  35  85 NE3       30.28R
MONTICELLO     NOT AVBL
$$





USA.gov is the U.S. government's official web portal to all federal, state and local government web resources and services.